This is the latest recevied weather packets stored in our database for station/object YO6IKB-10. If no packets are shown the sender has not sent any weather packets the latest 10 day(s).
| Time | Temp. | Humidity | Pressure | Rain* | Wind** | Luminosity | Snow |
|---|---|---|---|---|---|---|---|
| 1777366068 | 17.22° C | 38% | 1015.1 hPa | 0 mm | - | - | - |
| 1777365768 | 17.22° C | 40% | 1015.1 hPa | 0 mm | - | - | - |
| 1777365468 | 16.67° C | 40% | 1015.2 hPa | 0 mm | - | - | - |
| 1777365168 | 16.11° C | 39% | 1015.1 hPa | 0 mm | - | - | - |
| 1777364867 | 15.56° C | 40% | 1015.1 hPa | 0 mm | - | - | - |
| 1777364567 | 15.56° C | 40% | 1015.2 hPa | 0 mm | - | - | - |
| 1777364267 | 15° C | 38% | 1015.3 hPa | 0 mm | - | - | - |
| 1777363966 | 15.56° C | 38% | 1015.4 hPa | 0 mm | - | - | - |
| 1777363666 | 16.67° C | 39% | 1015.4 hPa | 0 mm | - | - | - |
| 1777363366 | 16.11° C | 41% | 1015.5 hPa | 0 mm | - | - | - |
| 1777363065 | 16.67° C | 38% | 1015.5 hPa | 0 mm | - | - | - |
| 1777362465 | 16.67° C | 42% | 1015.5 hPa | 0 mm | - | - | - |
| 1777362165 | 16.11° C | 43% | 1015.6 hPa | 0 mm | - | - | - |
| 1777361864 | 16.11° C | 43% | 1015.5 hPa | 0 mm | - | - | - |
| 1777361564 | 16.11° C | 42% | 1015.6 hPa | 0 mm | - | - | - |
| 1777361264 | 16.11° C | 44% | 1015.7 hPa | 0 mm | - | - | - |
| 1777360963 | 15.56° C | 43% | 1015.6 hPa | 0 mm | - | - | - |
| 1777360663 | 16.11° C | 42% | 1015.6 hPa | 0 mm | - | - | - |
| 1777360363 | 16.67° C | 42% | 1015.6 hPa | 0 mm | - | - | - |
| 1777360062 | 16.11° C | 45% | 1015.6 hPa | 0 mm | - | - | - |
| 1777359762 | 15.56° C | 46% | 1015.5 hPa | 0 mm | - | - | - |
| 1777359462 | 15.56° C | 46% | 1015.5 hPa | 0 mm | - | - | - |
| 1777359162 | 15.56° C | 47% | 1015.5 hPa | 0 mm | - | - | - |
| 1777358861 | 15° C | 49% | 1015.6 hPa | 0 mm | - | - | - |
| 1777358561 | 13.89° C | 50% | 1015.6 hPa | 0 mm | - | - | - |
* Rain latest hour (hover to see other rain measurements)
** Current wind speed in m/s (hover to see current wind gust speed)